Tracking 18673 objects as of 27-June-2017
HD Live streaming from Space Station
objects crossing your sky now

CP4

Track CP4 now!
10-day predictions
CP4 is classified as:


NORAD ID: 31132
Int'l Code: 2007-012Q
Perigee: 645.9 km
Apogee: 762.2 km
Inclination: 98.0 °
Period: 98.7 minutes
Semi major axis: 7075 km
RCS: 0.0337 m2 (small)
Launch date: April 17, 2007
Source: United States (US)
Launch site: TYURATAM MISSILE AND SPACE COMPLEX (TTMTR)
Uplink (MHz):
Downlink (MHz): 437.325
Beacon (MHz): 437.325
Mode: 1200bps SSB CW
Call sign: N6CP
Status: Inactive

Your satellite tracking list
Your tracking list is empty





NASA's NSSDC Master Catalog

Two Line Element Set (TLE):
1 31132U 07012Q   17177.83543966 +.00000092 +00000-0 +28523-4 0  9992
2 31132 098.0305 133.3412 0082185 108.6993 252.3150 14.58837586541861
Source of the keplerian elements: Caltech